NOAA 16 DEB

Satellite information

Favourite Embed

Satellite Type and Status

DEBRISIN ORBIT

Key statistics

Satellite NOAA 16 DEB at a glance.

Uptime

9160

Days in orbit

Revolutions

≈ 14.3

Per day

Orbit

SSO

Sun Synchronous Orbit

Inclination

98.8

Latest

Satellite identification and parameters

Extended collection of information and parameters for NOAA 16 DEB.

Object identification

Identified? True

Debris? True

Object name: NOAA 16 DEB

International designator: 2000-055TS

Object number (NORAD): 42422

Object ID (CCSDS): 42422

Country: UNITED STATES OF AMERICA (US)

Current information (Y/N): Y

RCS size: SMALL

Orbital parameters

Period: 100.561 minutes

Inclination: 98.779 deg

SMA: 7163.312 km

Apoapsis: 793.107 km

Periapsis: 777.248 km

RAAN: 29.7406 deg

Eccentricy: 0.00110696

Argument of periapsis: 275.3285 deg

Mean anomaly: 84.6635 deg

Mean motion: 14.31963505 rev/day

Mean motion (dot): 0.00009093 rev/day2

B* drag term: 0.0034017618 1/REarth

Two-line elements (TLE)

Creation date: Oct. 19, 2025, 2:20 a.m.

Reference frame: TEME

Reference center: EARTH

Epoch: Oct. 18, 2025, 12:10 p.m. UTC

TLE line 0: 0 NOAA 16 DEB

TLE line 1: 1 42422U 00055TS 25291.50730886 .00009093 00000-0 34018-2 0 9999

TLE line 2: 2 42422 98.7790 29.7406 0011070 275.3285 84.6635 14.31963505492380

Live tracking on map

Real-time ground track for satellite NOAA 16 DEB.

In-orbit conjunctions

A list of the most updated potential collisions computed for object NOAA 16 DEB.

Target Orbit TCA Probability of collision Miss distance Type
IDEFIX/ARIANE 42P SSO 2025-08-16 00:45:22 0.0001656982 985.0 (m) PAYLOAD
COSMOS 252 DEB LEO 2025-08-05 16:20:04 0.000100947 204.0 (m) DEBRIS
DMSP 5D-2 F13 DEB SSO 2025-05-03 04:32:52 0.000161987 226.0 (m) DEBRIS
SAFIR 2 SSO 2025-02-06 06:15:52 0.0002547264 246.0 (m) PAYLOAD
CZ-6A DEB LEO 2024-12-03 02:51:22 0.0001694392 866.0 (m) DEBRIS

Associated space launch

The NOAA K, L and M POES satellites begin the fifth generation of improved environmental monitoring in support of NOAA missions. The instrument payload has significant improvements and additions/deletions. The instrument changes have effected the spacecraft subsystems and data formats.

NOAA 16 DEB was lifted into orbit during the mission ‘Titan II SLV | NOAA 16’, on board a Titan II SLV space rocket.

The launch took place on Sept. 21, 2000, 10:22 a.m. from Space Launch Complex 4W.

For more information about the launch, click the button.

Launch to space Titan II SLV | NOAA 16
Titan II SLV | NOAA 16

Agency: N/A

Status: Launch Successful

Launch date: Sept. 21, 2000, 10:22 a.m. UTC

Rocket: Titan II SLV

Launch pad: Space Launch Complex 4W

Location: Vandenberg SFB, CA, USA

...

Latest news about this satellite

There are no fresh news available about this satellite. Check back as we update our databases every day.


Newsletter sign-up

Weekly statistics, charts and insights to help you stay on top of the space industry.